Victoria, British Columbia

1:51 PM PDT on September 19, 2017 (GMT -0700)
Victoria International

Weather History for CYYJ - April, 2013

Change the Weather History Date:

Wednesday, April 10, 2013

  Actual Average Record
Temperature  
Mean Temperature 52 °F -  
Max Temperature 59 °F 57 °F 68 °F (2004)
Min Temperature 45 °F 41 °F 35 °F (1997)
Degree Days  
Heating Degree Days 13    
Growing Degree Days 2 (Base 50)    
Moisture  
Dew Point 42 °F    
Average Humidity 71    
Maximum Humidity 93    
Minimum Humidity 45    
Precipitation  
Precipitation 0.35 in 0.05 in - ()
Sea Level Pressure  
Sea Level Pressure 30.04 in    
Wind  
Wind Speed 9 mph ()    
Max Wind Speed 21 mph    
Max Gust Speed 29 mph    
Visibility 10.4 miles    
Events Rain    
Averages and records for this station are not official NWS values.
T = Trace of Precipitation, MM = Missing Value Source: Averaged Metar Reports

Daily Weather History Graph

Daily Weather History Graph

Search for Another Location

Airport or City:

Trip Planner

Search our weather history database for the weather conditions in past years. The results will help you decide how hot, cold, wet, or windy it might be!

Date:

Astronomy

Apr. 10, 2013 Rise Set
Actual Time 6:32 AM PDT 7:58 PM PDT
Civil Twilight 5:59 AM PDT 8:31 PM PDT
Nautical Twilight 5:20 AM PDT 9:10 PM PDT
Astronomical Twilight 4:37 AM PDT 9:53 PM PDT
Moon 6:28 AM PDT (4/10) 8:45 PM PDT (4/10)
Length of Visible Light 14h 31m
Length of Day
13h 25m
New Moon, 0% of the Moon is Illuminated
Apr 10
New Moon
Apr 18
First Quarter
Apr 25
Full
May 2
Last Quarter
May 9
New

Hourly Weather History & Observations

Time (PDT) Temp. Windchill Dew Point Humidity Pressure Visibility Wind Dir Wind Speed Gust Speed Precip Events Conditions
12:00 AM 46.4 °F 45.2 °F 42.8 °F 87% 30.13 in 10.0 mi WSW 3.5 mph - N/A   Light Drizzle
12:47 AM 46.4 °F 45.2 °F - N/A% - 10.0 mi WSW 3.5 mph - N/A   Overcast
1:00 AM 46.4 °F - 42.8 °F 87% 30.10 in 10.0 mi WSW 2.3 mph - N/A   Light Drizzle
1:29 AM 46.4 °F - - N/A% - 6.0 mi SSW 2.3 mph - N/A Rain Light Rain
2:00 AM 46.4 °F - 42.8 °F 87% 30.06 in 6.0 mi Calm Calm - N/A Rain Light Rain
3:00 AM 46.4 °F - 42.8 °F 87% 30.03 in 6.0 mi East 2.3 mph - N/A Rain Light Rain
4:00 AM 46.4 °F 42.4 °F 41.0 °F 81% 29.99 in 7.0 mi SE 8.1 mph - N/A Rain Light Rain
5:00 AM 47 °F - 43 °F 82% 29.95 in 7 mi SE 6.9 mph - - Rain Light Rain
5:00 AM 46.4 °F 41.9 °F 42.8 °F 87% 29.95 in 7.0 mi ESE 9.2 mph - N/A Rain Light Rain
5:41 AM 48.2 °F - - N/A% - 7.0 mi SE 15.0 mph - N/A Rain Light Rain
6:00 AM 46.4 °F 40.4 °F 44.6 °F 93% 29.90 in 7.0 mi SSE 13.8 mph - N/A Rain Light Rain
6:16 AM 46.4 °F 40.1 °F - N/A% - 6.0 mi SE 15.0 mph - N/A Rain Rain
7:00 AM 46.4 °F 42.4 °F 42.8 °F 87% 29.88 in 6.0 mi SE 8.1 mph - N/A Rain Light Rain
8:00 AM 48.2 °F - 44.6 °F 87% 29.86 in 8.0 mi SE 10.4 mph - N/A Rain Light Rain
9:00 AM 51.8 °F - 46.4 °F 82% 29.86 in 10.0 mi SSW 13.8 mph 20.7 mph N/A Rain Light Rain
9:32 AM 51.8 °F - - N/A% - 12.0 mi SSW 13.8 mph - N/A   Mostly Cloudy
10:00 AM 51.8 °F - 44.6 °F 76% 29.87 in 15.0 mi WSW 16.1 mph 24.2 mph N/A   Mostly Cloudy
11:00 AM 55 °F - 45 °F 61% 29.91 in 15 mi WSW 17.3 mph - - Rain Light Rain Showers
11:00 AM 55.4 °F - 44.6 °F 67% 29.91 in 15.0 mi WSW 17.3 mph 23.0 mph N/A Rain Light Rain Showers
11:24 AM 55.4 °F - - N/A% - 15.0 mi West 20.7 mph 28.8 mph N/A   Mostly Cloudy
12:00 PM 53.6 °F - 42.8 °F 67% 29.97 in 15.0 mi WNW 8.1 mph - N/A   Mostly Cloudy
12:24 PM 53.6 °F - - N/A% - 15.0 mi WNW 11.5 mph - N/A Rain Light Rain Showers
12:43 PM 55.4 °F - - N/A% - 15.0 mi WNW 8.1 mph - N/A   Mostly Cloudy
1:00 PM 55.4 °F - 44.6 °F 67% 30.01 in 15.0 mi West 5.8 mph - N/A   Mostly Cloudy
2:00 PM 57.2 °F - 44.6 °F 63% 30.04 in 15.0 mi SW 12.7 mph 21.9 mph N/A   Mostly Cloudy
3:00 PM 59.0 °F - 42.8 °F 55% 30.06 in 30.0 mi SW 15.0 mph 24.2 mph N/A   Mostly Cloudy
4:00 PM 57.2 °F - 41.0 °F 55% 30.09 in 30.0 mi SW 18.4 mph - N/A   Mostly Cloudy
5:00 PM 56 °F - 40 °F 45% 30.12 in 28 mi WSW 13.8 mph - -   Partly Cloudy
5:00 PM 57.2 °F - 41.0 °F 55% 30.12 in 30.0 mi WSW 13.8 mph 20.7 mph N/A   Mostly Cloudy
6:00 PM 55.4 °F - 41.0 °F 58% 30.14 in 30.0 mi WSW 17.3 mph - N/A   Mostly Cloudy
7:00 PM 53.6 °F - 39.2 °F 58% 30.15 in 30.0 mi WSW 13.8 mph - N/A   Scattered Clouds
8:00 PM 48.2 °F - 37.4 °F 66% 30.16 in 30.0 mi WSW 16.1 mph 21.9 mph N/A   Scattered Clouds
9:00 PM 48.2 °F - 37.4 °F 66% 30.18 in 30.0 mi WSW 20.7 mph - N/A   Partly Cloudy
10:00 PM 48.2 °F - 35.6 °F 62% 30.19 in 30.0 mi WSW 16.1 mph 24.2 mph N/A   Partly Cloudy
11:00 PM 47 °F - 36 °F 55% 30.21 in 28 mi West 16.1 mph - -   Scattered Clouds
11:00 PM 46.4 °F 40.1 °F 35.6 °F 66% 30.21 in 30.0 mi West 15.0 mph 20.7 mph N/A   Partly Cloudy